MPEC 2004-F95 : 2004 FJ31

The following Minor Planet Electronic Circular may be linked-to from your own Web pages, but must not otherwise be redistributed electronically.


Read MPEC 2004-F94 Read MPEC 2004-F96


M.P.E.C. 2004-F95                                Issued 2004 Mar. 31, 12:08 UT

     The Minor Planet Electronic Circulars contain information on unusual
         minor planets and routine data on comets.  They are published
   on behalf of Commission 20 of the International Astronomical Union by the
          Minor Planet Center, Smithsonian Astrophysical Observatory,
                          Cambridge, MA 02138, U.S.A.

         Supported in part by the Steven and Michele Kirsch Foundation
             Prepared using the Tamkin Foundation Computer Network

                              MPC@CFA.HARVARD.EDU
          URL http://cfa-www.harvard.edu/iau/mpc.html  ISSN 1523-6714

                                   2004 FJ31

Observations:
     K04F31J* C2004 03 29.34511 15 53 44.62 +08 37 07.7          19.6   EF095704
     K04F31J  C2004 03 29.35535 15 53 55.98 +08 37 18.7          20.2   EF095704
     K04F31J  C2004 03 29.36590 15 54 07.61 +08 37 30.4          19.7   EF095704
     K04F31J  C2004 03 29.37628 15 54 19.06 +08 37 40.8          19.8   EF095704
     K04F31J  C2004 03 30.43652 16 16 07.10 +08 54 36.9          19.7   EF095704
     K04F31J  C2004 03 30.44692 16 16 20.21 +08 54 45.3          19.3   EF095704
     K04F31J  C2004 03 30.45727 16 16 33.33 +08 54 55.3          19.4   EF095704
     K04F31J  C2004 03 30.46784 16 16 46.65 +08 55 03.0          20.2   EF095704
     K04F31J  C2004 03 31.11833 16 31 45.20 +09 02 50.9                 EF095J95
     K04F31J  C2004 03 31.12867 16 31 59.78 +09 02 59.3          19.2 R EF095J95
     K04F31J  C2004 03 31.33322 16 36 59.11 +09 05 42.8          19.8 R EF095649
     K04F31J  C2004 03 31.33415 16 37 00.38 +09 05 44.0          20.1 R EF095649
     K04F31J  C2004 03 31.33788 16 37 05.75 +09 05 47.1          20.3 R EF095649
     K04F31J  C2004 03 31.33883 16 37 07.04 +09 05 47.4          19.7 R EF095649
     K04F31J 5C2004 03 31.33958 16 37 11.23 +09 05 55.1          19.5 R EF095673
     K04F31J  C2004 03 31.33977 16 37 08.29 +09 05 48.3          20.2 R EF095649
     K04F31J 5C2004 03 31.34248 16 37 15.40 +09 05 56.8                 EF095673
     K04F31J 5C2004 03 31.34491 16 37 18.90 +09 05 58.4                 EF095673
     K04F31J 5C2004 03 31.34745 16 37 22.49 +09 05 59.8                 EF095673
     K04F31J 5C2004 03 31.34959 16 37 25.54 +09 06 01.6                 EF095673
     K04F31J 5C2004 03 31.35150 16 37 28.31 +09 06 02.7                 EF095673
     K04F31J  C2004 03 31.42102 16 39 06.27 +09 06 58.6          19.2 R EF095854
     K04F31J  C2004 03 31.42529 16 39 12.18 +09 07 03.1          19.2 R EF095854
     K04F31J  C2004 03 31.42957 16 39 18.26 +09 07 02.6          19.5 R EF095854

Observer details:
649 Powell Observatory, Louisburg.  Observers R. Fredrick, R. Trentman.
    0.75-m Newtonian + CCD.
673 Table Mountain Observatory, Wrightwood.  Observer J. Young.  0.6-m
    reflector + CCD.
704 Lincoln Laboratory ETS, New Mexico.  Observers M. Blythe, F. Shelly,
    M. Bezpalko, R. Huber, L. Manguso, D. Torres, R. Kracke, M. McCleary,
    H. Stange, A. Milner.  Measurers J. Stuart, R. Sayer, J. Evans, J. Kommers.
    1.0-m f/2.15 reflector + CCD.
854 Sabino Canyon Observatory, Tucson.  Observer J. E. McGaha.  0.356-m f/10.0
    Schmidt-Cassegrain + CCD.
J95 Great Shefford.  Observer P. Birtwhistle.  0.30-m f/6.3 Schmidt-Cassegrain
    + CCD.

Orbital elements:
2004 FJ31
Epoch 2004 Mar. 16.0 TT = JDT 2453080.5                 MPC
M 311.54666              (2000.0)            P               Q
n   0.68525031     Peri.  203.72039     -0.13408324     +0.99054248
a   1.2741969      Node    58.58555     -0.90365240     -0.11015997
e   0.3242117      Incl.    1.95459     -0.40673581     -0.08179468
P   1.44           H   24.4           G   0.15
From 24 observations 2004 Mar. 29-31.

Ephemeris:
2004 FJ31                a,e,i = 1.27, 0.32, 2                   q = 0.8611
Date    TT    R. A. (2000) Decl.     Delta      r     Elong.  Phase     V
2004 03 26    15 01.68   +07 37.6    0.069    1.051   138.6    38.9    20.3
2004 03 27    15 14.91   +07 55.7    0.065    1.045   136.2    41.4    20.2
2004 03 28    15 29.99   +08 14.1    0.060    1.040   133.2    44.3    20.1
2004 03 29    15 47.17   +08 32.3    0.056    1.036   129.8    47.8    20.0
2004 03 30    16 06.74   +08 49.2    0.053    1.031   125.8    51.8    20.0
2004 03 31    16 28.90   +09 03.4    0.050    1.026   121.2    56.5    20.0
2004 04 01    16 53.72   +09 13.2    0.047    1.021   115.9    61.7    20.0
2004 04 02    17 21.07   +09 16.3    0.045    1.016   110.0    67.6    20.1
2004 04 03    17 50.51   +09 10.8    0.044    1.011   103.7    73.9    20.2
2004 04 04    18 21.26   +08 55.3    0.043    1.006    97.0    80.6    20.4
2004 04 05    18 52.31   +08 30.0    0.043    1.002    90.3    87.3    20.6
2004 04 06    19 22.59   +07 56.4    0.044    0.997    83.7    93.8    21.0
2004 04 07    19 51.18   +07 17.1    0.046    0.992    77.6    99.8    21.3
2004 04 08    20 17.45   +06 35.0    0.048    0.988    72.0   105.3    21.7
2004 04 09    20 41.13   +05 52.8    0.051    0.983    67.1   110.1    22.1
2004 04 10    21 02.16   +05 12.4    0.054    0.979    62.9   114.3    22.4
2004 04 11    21 20.72   +04 34.8    0.058    0.974    59.3   117.8    22.8
2004 04 12    21 37.03   +04 00.6    0.062    0.970    56.2   120.7    23.2
2004 04 13    21 51.37   +03 29.9    0.066    0.965    53.7   123.2    23.5
2004 04 14    22 04.00   +03 02.6    0.070    0.961    51.6   125.1    23.8
2004 04 15    22 15.18   +02 38.5    0.075    0.957    49.8   126.7    24.1

Timothy B. Spahr             (C) Copyright 2004 MPC           M.P.E.C. 2004-F95

Read MPEC 2004-F94 Read MPEC 2004-F96


Our Web policy. Index to the CBAT/MPC/ICQ pages.

MPC